Regional Weather Roundup
Issued by NWS

Home | Current Version | Previous Version | Text Only | Print | Product List | Glossary Off
Versions: 1 2 3 4 5 6 7 8 9 10 11 12 13 14 15 16 17 18 19 20 21 22 23 24 25 26 27 28 29 30 31 32 33 34 35 36 37 38 39 40 41 42 43 44 45 46 47 48 49 50

000
ASUS44 KMEG 182310
RWRTN
TENNESSEE HOURLY STATE WEATHER ROUNDUP
NATIONAL WEATHER SERVICE MEMPHIS TN
500 PM CST THU DEC 18 2014

TNZ002-004-019-021-049-052-054-088>092-190000-
WEST TENNESSEE

CITY           SKY/WX    TMP DP  RH WIND       PRES   REMARKS
MEMPHIS INTL   CLOUDY    46  36  68 N3        30.18S
NWS MEMPHIS      N/A     44 N/A N/A MISG        N/A
JACKSON        CLOUDY    44  35  70 NE3       30.19S
DYERSBURG      CLOUDY    41  27  56 NE6       30.22S
UNION CITY     CLOUDY    36  32  87 NE5       30.20S WCI  32
PARIS          CLOUDY    36  30  80 NE7       30.20F WCI  30
HUNTINGDON     CLOUDY    36  30  79 NE7       30.21R WCI  30
LEXINGTON      CLOUDY    39  34  81 NE5       30.19R
SAVANNAH       CLOUDY    43  36  75 CALM      30.19S
$$

TNZ008-025-027-028-033-062-065-066-190000-
NORTH MIDDLE TENNESSEE

CITY           SKY/WX    TMP DP  RH WIND       PRES   REMARKS
NASHVILLE      CLOUDY    37  31  78 NE3       30.21S
CLARKSVILLE    CLOUDY    35  29  78 CALM      30.23R
SMYRNA         CLOUDY    38  32  79 N3        30.22S
COOKEVILLE     MOCLDY    37  34  87 CALM      30.17S
CROSSVILLE     CLOUDY    38  28  67 N3        30.15S
$$

TNZ061-075-076-078-094-096-097-190000-
SOUTH MIDDLE TENNESSEE

CITY           SKY/WX    TMP DP  RH WIND       PRES   REMARKS
FAYETTEVILLE   CLOUDY    39  34  81 N6        30.17R WCI  35
TULLAHOMA      CLOUDY    37  34  87 N6        30.18R WCI  33
WINCHESTER     CLOUDY    41  36  81 N3        30.17S
MCMINNVILLE    CLOUDY    37  34  87 CALM      30.18R
SHELBYVILLE    CLOUDY    37  34  87 N5        30.20R WCI  34
$$

TNZ017-018-042-046-047-190000-
NORTHEAST TENNESSEE

CITY           SKY/WX    TMP DP  RH WIND       PRES   REMARKS
TRI CITIES     CLOUDY    40  28  62 CALM      30.14S
ELIZABETHTON   CLOUDY    39  23  52 SW5       30.14R
$$

TNZ012-013-036-069-073-074-190000-
CENTRAL EAST TENNESSEE

CITY           SKY/WX    TMP DP  RH WIND       PRES   REMARKS
KNOXVILLE      CLOUDY    43  32  65 SE3       30.16F
OAK RIDGE      CLOUDY    45  30  55 CALM      30.18R
GATLINBURG     CLOUDY    41  28  60 S3        30.15F
MORRISTOWN     CLOUDY    43  30  61 NW3       30.16R
$$

TNZ083-085-099-190000-
SOUTHEAST TENNESSEE

CITY           SKY/WX    TMP DP  RH WIND       PRES   REMARKS
CHATTANOOGA    CLOUDY    46  34  62 NE3       30.16R
$$

SKY/WX REPORTED AS FAIR MEANS FEW OR NO CLOUDS BELOW
12 THOUSAND FEET.




USA.gov is the U.S. government's official web portal to all federal, state and local government web resources and services.